Miscellaneous Local Product
Issued by NWS North Platte, NE

Home | Current Version | Previous Version | Graphics & Text | Print | Product List | Glossary On
Versions: 1 2 3 4 5 6 7 8 9 10 11 12 13 14 15 16 17 18 19 20 21 22 23 24 25 26 27 28 29 30 31 32 33 34 35 36 37 38 39 40 41 42 43 44 45 46 47 48 49 50
000
AXUS43 KLBF 190210
MISLBF


WESTERN AND NORTH CENTRAL NEBRASKA HOURLY WEATHER ROUNDUP
NATIONAL WEATHER SERVICE NORTH PLATTE NE
900 PM CDT FRI AUG 18 2017

NOTE: "FAIR" INDICATES FEW OR NO CLOUDS BELOW 12,000 FEET WITH NO
SIGNIFICANT WEATHER AND/OR OBSTRUCTIONS TO VISIBILITY.

NOTE: STATIONS NOT REPORTING VARIABLES SUCH AS SKY/WEATHER OR
PRESSURE ARE PROVIDED BY RAWS AND APRS NETWORKS AND ARE NOT UNDER
NATIONAL WEATHER SERVICE QUALITY CONTROL.

...OBSERVATIONS IN AND NEAR THE EASTERN PANHANDLE OF NEBRASKA...

CITY           SKY/WX    TMP DP  RH WIND       PRES   REMARKS
PINE RIDGE     CLEAR     71  54  54 E7        30.00S
GORDON         FAIR      68  57  67 E3        30.02S
CHADRON        CLEAR     72  51  47 SE7       29.98R
ALLIANCE       CLEAR     67  54  63 S8        30.02S
SIDNEY         CLEAR     70  48  45 SE9       30.09R
CRESCENT LAKE    N/A     75  52  45 SE3         N/A
$$

...OBSERVATIONS IN NORTHERN NEBRASKA AND FAR SOUTHERN SOUTH DAKOTA...

CITY           SKY/WX    TMP DP  RH WIND       PRES   REMARKS
WINNER         FAIR      73  58  59 E7        29.97F
VALENTINE      CLEAR     72  55  55 E7        30.00R
THEDFORD       CLEAR     72  60  65 E8        30.02R
AINSWORTH      CLEAR     67  61  81 NE7       30.01S
O`NEILL        CLEAR     70  60  70 N5        29.99R
ORD            CLEAR     71  57  61 NE6       29.97R
BROKEN BOW     CLEAR     74  60  61 E3        29.99R
VALENTINE NWR    N/A     74  58  57 E7          N/A
HALSEY           N/A     76  57  51 E5          N/A
BUTTE            N/A     70  60  71 NE5         N/A
CHAMBERS         N/A     69  58  68 CALM        N/A
EWING            N/A     67  62  84 CALM        N/A
$$

...OBSERVATIONS IN SOUTHWEST NEBRASKA AND FAR NORTHEAST COLORADO...

CITY           SKY/WX    TMP DP  RH WIND       PRES   REMARKS
HOLYOKE        FAIR      68  57  68 SE9       30.07R
IMPERIAL       CLEAR     72  56  57 SE6       30.04S
OGALLALA       CLEAR     72  60  66 CALM      30.03R
NORTH PLATTE   CLEAR     71  65  81 CALM      30.00R
MCCOOK         CLEAR     75  56  51 S5        30.00S
LEXINGTON      CLEAR     73  64  72 S7        29.99R
STAPLETON        N/A     76  53  44 CALM        N/A
GOTHENBURG       N/A     85  49  28 CALM        N/A
CALLAWAY         N/A     79  63  57 NE3         N/A
$$

...OBSERVATIONS IN CENTRAL LINCOLN COUNTY AREA...

CITY           SKY/WX    TMP DP  RH WIND       PRES   REMARKS
N.P. AIRPORT   CLEAR     71  65  81 CALM      30.00R
N.P. DOWNTOWN    N/A     76  59  54 CALM        N/A
N.P. SOUTHEAST   N/A     77  58  51 CALM        N/A
N.P. HILLCREST   N/A     82  48  30 CALM        N/A
$$

...SOME OBSERVATIONS FROM AROUND THE REGION...

CITY           SKY/WX    TMP DP  RH WIND       PRES   REMARKS
DENVER         PTCLDY    76  42  29 E9        30.13S
LIMON          CLEAR     68  53  58 SE7       30.17R
ASPEN          CLOUDY    72  34  24 VRB3      30.32S
LARAMIE        CLEAR     66  36  32 NW9       30.26S
CASPER         CLEAR     74  36  25 N8        30.07R
CHEYENNE       CLEAR     73  44  35 S9        30.19R
SCOTTSBLUFF    CLEAR     76  48  37 S9        30.03S
GRAND ISLAND   CLEAR     74  66  76 SW7       29.96R
OMAHA          PTCLDY    80  64  58 CALM      29.89S
SIOUX FALLS    PTCLDY    68  61  78 NW9       29.93R
PIERRE         CLEAR     69  53  56 E7        29.93S
RAPID CITY     CLEAR     72  47  40 SE3       29.98S
BISMARCK       CLEAR     67  60  78 S6        29.91S
KANSAS CITY    PTCLDY    72  68  87 NE7       29.92R
HILL CITY      CLEAR     73  62  68 CALM      30.00R
WICHITA        CLEAR     81  67  62 SE7       29.93S
DODGE CITY     CLEAR     81  61  50 S6        29.99R
OKLAHOMA CITY  CLEAR     79  73  82 S6        29.95S
DALLAS         CLEAR     84  74  71 S5        29.94R HX  91
AMARILLO       CLEAR     79  67  66 S6        30.09R
$$




USA.gov is the U.S. government's official web portal to all federal, state and local government web resources and services.